Theta_e
308 307 309 309 308 310 310 307 303 298 299 301 303 305 300 299 303 304 303 310 313 312 313 313 314 314 313 312 311 309 309 309 309 309 309 310 311 312
302 301 303 303 302 301 301 302 302 300 296 300 299 297 298 300 303 305 305 309 309 311 312 312 313 313 312 311 309 309 309 309 308 308 307 308 309 310
298 297 297 296 295 295 296 295 294 294 291 293 294 297 296 296 298 298 300 299 300 307 309 311 312 312 311 311 310 310 309 309 308 307 307 307 308 308
297 297 297 299 294 293 293 293 292 294 294 291 292 294 294 295 296 295 298 300 297 304 308 310 311 310 310 310 310 310 309 308 308 307 306 307 306 308
297 297 297 297 294 293 293 293 293 295 292 291 291 292 294 294 294 294 294 294 299 305 308 308 308 310 310 309 309 308 308 307 306 306 306 305 305 305
296 297 297 296 294 294 294 292 293 292 291 291 295 295 291 293 292 290 293 292 294 298 304 305 307 307 308 308 307 308 307 306 305 304 304 303 303 304
294 295 296 301 303 301 297 295 293 291 292 292 291 294 290 290 290 290 289 290 292 293 295 300 301 299 299 302 304 307 306 305 303 302 302 302 301 301
292 293 293 298 298 300 302 303 301 294 292 290 290 289 291 291 290 289 289 291 291 293 293 294 300 298 297 297 303 303 302 301 301 301 301 300 300 299
293 293 294 295 296 293 296 298 297 300 301 293 290 290 291 291 290 289 289 289 293 293 292 295 298 295 296 297 300 303 302 301 300 300 300 300 299 298
292 293 292 292 292 295 292 291 291 292 293 296 292 293 293 293 291 294 293 295 293 294 296 293 295 292 293 293 302 302 301 300 300 300 299 299 298 297
291 291 293 292 295 296 292 290 289 291 296 300 298 298 297 297 298 292 290 292 293 289 294 295 293 290 289 293 300 301 301 301 299 299 298 298 297 297
290 291 297 295 295 294 291 288 288 288 290 291 291 292 294 294 297 291 295 291 293 291 297 290 290 291 290 296 297 298 298 298 298 298 297 297 296 295
289 290 291 295 294 293 293 289 289 290 292 289 289 289 290 291 290 292 293 296 293 291 297 294 292 292 292 292 295 297 296 295 295 296 296 296 296 295
289 289 290 293 292 293 292 293 293 293 289 289 287 287 287 292 293 294 294 296 294 294 297 296 293 292 292 291 291 295 295 295 294 294 294 295 295 295
291 294 294 292 292 291 293 293 293 290 288 287 286 286 292 294 295 294 295 295 296 296 300 296 294 294 293 292 291 292 291 293 294 293 293 292 292 293
293 290 293 292 292 292 290 289 288 288 288 286 290 292 294 294 293 294 293 294 293 294 297 297 296 294 292 293 292 290 291 289 293 293 292 292 292 293
290 288 287 286 287 288 287 287 287 286 286 287 290 292 292 293 292 293 293 293 292 291 292 294 295 295 294 292 290 289 289 291 292 292 292 290 291 292
288 285 285 285 285 286 286 286 285 287 288 289 290 291 291 292 291 292 293 292 291 292 292 292 292 292 292 292 293 289 290 290 292 292 291 289 289 292
286 285 285 285 286 286 285 285 284 286 288 290 291 291 291 292 290 291 291 291 291 292 291 292 291 289 288 286 291 294 288 290 292 290 291 290 288 290
286 286 286 285 286 286 286 285 285 286 289 289 291 291 291 290 290 290 290 290 291 291 290 291 290 289 286 285 285 290 292 291 291 290 290 291 291 293
287 286 286 286 286 286 286 286 285 286 287 289 290 290 291 290 289 290 290 289 289 291 288 289 291 287 292 292 288 287 290 294 294 292 291 289 289 289
287 287 287 287 286 286 286 286 285 286 287 288 289 290 290 291 290 290 291 290 290 290 289 291 293 292 290 288 286 287 289 292 294 295 296 294 290 286
288 287 286 286 286 287 286 285 286 286 288 288 288 289 290 290 291 291 291 291 290 290 291 290 291 291 290 289 288 289 290 291 291 291 292 295 296 296
Wind_Speed
8 9 7 7 7 6 3 3 1 2 2 2 3 4 4 4 8 5 6 12 14 13 12 12 13 12 11 10 9 8 8 8 7 7 10 13 16 17
4 7 7 5 5 5 4 3 3 2 3 2 2 3 5 4 7 6 6 12 14 14 14 12 11 10 11 11 9 10 11 11 10 8 7 10 14 15
6 6 7 6 5 5 4 4 4 3 2 4 2 3 3 5 6 5 5 5 5 14 14 13 10 10 11 11 13 14 14 13 11 10 8 9 13 15
6 7 6 5 6 5 3 4 3 2 1 3 2 3 3 3 4 4 4 5 5 12 14 13 8 7 7 10 11 13 13 13 12 12 10 10 13 17
6 5 6 6 6 4 3 4 3 3 1 1 3 2 3 2 4 4 4 5 6 14 10 12 11 7 8 10 13 13 14 12 9 9 10 12 14 14
5 5 5 5 5 5 4 4 4 4 2 2 3 3 3 4 3 3 6 3 6 6 8 11 8 8 5 5 8 12 9 9 9 7 10 11 12 13
7 6 6 8 11 8 3 5 4 3 3 3 3 3 3 3 3 3 3 4 5 2 4 4 3 3 4 6 8 10 5 3 5 6 7 8 8 9
6 7 6 8 9 12 10 8 4 3 4 2 2 3 5 3 3 2 2 3 4 2 4 5 1 3 3 3 7 3 1 2 4 5 7 8 8 8
6 6 7 4 9 6 9 9 7 6 2 2 3 3 4 3 3 4 3 3 3 4 1 4 2 3 2 4 10 6 4 4 5 7 8 9 9 9
6 7 6 7 7 8 7 7 5 6 5 3 4 5 5 6 4 4 4 5 4 4 3 3 3 3 4 4 8 2 4 4 6 7 8 8 9 10
6 6 6 7 12 12 5 5 6 6 5 4 5 5 9 10 8 4 4 4 3 4 1 1 2 3 3 3 2 8 5 4 5 7 8 9 10 10
8 7 12 11 14 12 4 3 4 4 5 6 6 7 7 8 11 2 4 5 4 3 1 1 2 2 4 1 4 2 2 3 6 7 10 11 12 5
4 6 6 15 12 13 6 3 4 4 4 3 3 4 5 6 5 5 5 4 3 3 1 1 2 2 3 3 2 2 2 4 2 4 8 9 12 9
4 4 6 11 13 13 10 8 7 6 4 4 3 4 4 6 6 5 7 4 4 7 1 1 2 2 2 3 3 2 2 3 2 3 3 6 8 10
3 6 11 12 11 8 11 12 9 5 4 3 3 3 6 7 7 4 6 6 5 4 2 2 2 4 3 3 3 2 5 1 1 2 2 3 4 3
8 6 9 8 8 8 7 6 4 4 4 4 4 5 5 5 6 4 4 5 4 3 4 3 4 3 2 2 2 3 4 3 2 2 2 2 3 3
4 4 4 5 6 7 6 6 5 5 5 4 7 8 5 5 5 5 4 4 3 4 3 1 4 3 1 2 1 3 4 3 2 3 1 2 3 4
4 3 4 4 5 6 7 7 5 8 7 7 7 7 7 5 5 5 4 4 4 4 2 2 3 2 1 1 2 2 3 3 2 3 2 2 3 4
3 3 4 5 5 6 6 6 6 7 8 7 7 7 7 5 5 5 5 5 4 4 1 2 2 2 2 2 2 4 4 3 2 1 2 2 2 4
2 3 4 5 5 7 7 7 7 7 8 8 8 6 6 5 5 5 5 5 4 2 3 2 2 1 1 1 2 2 8 3 2 1 1 2 2 7
2 3 4 5 5 6 7 7 7 8 8 7 7 6 6 5 5 5 5 6 5 2 3 3 3 3 2 2 2 3 3 7 6 3 0 1 2 3
3 3 4 5 5 7 8 8 8 8 8 7 7 6 6 5 4 5 4 4 3 2 2 2 3 3 2 2 2 3 3 3 4 6 8 6 1 3
2 3 4 5 5 7 7 8 8 8 8 7 7 6 6 5 4 3 3 3 3 3 2 3 2 2 2 2 3 3 4 3 2 3 3 3 3 2
Wind_Direction
13 18 17 17 21 14 25 23 20 304 295 7 334 355 344 335 326 334 316 315 317 310 300 295 259 260 258 258 264 271 272 274 277 294 313 311 304 297
6 18 17 5 13 19 18 24 21 17 319 360 326 314 328 330 321 342 319 342 331 322 309 294 282 249 249 252 257 267 270 267 267 272 279 300 297 296
15 26 20 14 15 14 16 18 15 17 346 312 316 306 302 319 318 321 330 315 308 319 314 305 277 237 243 260 256 254 255 256 265 265 276 296 297 291
5 14 12 5 11 6 14 11 360 339 20 285 288 298 274 288 281 304 312 314 298 314 320 310 276 246 253 268 253 249 245 248 249 263 273 284 293 287
356 1 353 358 352 341 332 338 328 318 298 239 276 275 272 293 310 295 298 303 319 336 344 357 336 268 254 266 281 280 243 231 239 257 275 290 285 290
7 11 354 354 353 339 332 317 307 314 298 290 275 268 254 283 263 289 333 326 324 329 343 341 332 351 358 334 331 325 275 205 231 238 268 282 287 285
357 354 340 356 7 14 355 324 334 324 307 321 294 286 291 317 324 308 291 305 305 300 326 316 325 328 322 343 341 344 4 187 212 254 271 276 280 290
338 327 328 337 335 340 357 1 12 341 338 325 302 294 285 266 283 285 292 322 324 311 343 300 320 294 300 309 307 295 273 295 292 284 291 289 287 288
314 312 316 317 323 309 317 329 336 335 324 213 275 265 291 280 298 295 272 250 264 277 319 282 339 309 318 310 310 264 239 265 294 307 305 297 287 286
320 318 313 315 307 318 305 303 307 308 295 290 236 268 272 289 243 261 269 282 271 277 206 271 359 297 312 312 315 308 266 288 295 306 309 313 311 304
327 319 323 322 324 335 308 306 312 304 303 323 4 336 332 327 345 332 316 309 288 282 268 233 284 286 292 296 359 354 8 340 329 312 315 312 309 305
332 338 343 353 341 345 336 315 315 304 331 336 342 345 339 323 332 329 302 287 274 286 270 347 287 7 316 300 333 319 347 334 329 325 323 323 324 308
335 342 338 340 342 355 6 319 281 315 324 333 323 330 326 323 310 307 286 292 308 259 276 8 306 300 240 302 292 288 330 333 310 311 326 325 328 331
337 314 313 345 5 5 10 1 15 354 339 336 344 319 315 311 300 302 300 291 250 253 276 357 282 268 273 289 270 295 305 323 338 308 319 324 325 338
320 339 356 358 358 358 350 8 4 349 332 342 318 289 309 309 295 286 304 306 305 267 231 217 285 289 265 276 288 310 329 297 315 301 311 334 333 337
1 354 358 356 353 339 348 344 343 336 328 292 288 284 319 312 318 330 300 311 309 301 318 203 300 277 265 256 294 333 308 300 335 318 341 340 335 347
327 0 347 341 344 345 338 327 320 321 327 301 314 309 314 325 316 323 312 317 295 307 297 304 311 319 349 341 320 331 317 303 343 322 313 329 312 332
34 353 328 329 329 327 331 328 309 328 325 323 319 319 315 323 326 319 320 317 312 313 310 322 320 316 245 221 171 343 315 299 291 343 342 314 325 344
23 331 323 326 322 324 318 316 311 316 311 326 321 320 321 327 323 321 322 317 322 326 7 325 330 323 325 311 327 38 337 314 333 347 337 357 330 331
344 313 311 317 318 325 323 321 316 318 321 325 316 323 322 331 323 323 322 315 315 332 355 318 309 312 311 290 301 303 326 313 320 281 286 329 307 316
301 314 310 314 316 320 316 314 310 311 315 321 319 326 322 326 323 322 318 321 328 13 342 341 337 305 296 341 346 325 303 328 5 3 316 278 325 334
279 295 318 316 314 322 320 318 318 321 329 323 323 325 326 323 327 322 329 351 347 358 312 333 4 17 24 18 341 315 317 325 359 17 46 51 9 0
288 310 328 322 320 320 321 323 321 323 329 328 329 325 325 329 333 332 344 348 11 330 323 6 27 15 359 349 341 338 329 323 319 348 332 18 2 12